TimeAKDT,TemperatureF,Dew PointF,Humidity,Sea Level PressureIn,VisibilityMPH,Wind Direction,Wind SpeedMPH,Gust SpeedMPH,PrecipitationIn,Events,Conditions,WindDirDegrees,DateUTC
12:16 AM,30.2,28.4,93,28.91,0.8,WSW,11.5,16.1,N/A,,Overcast,240,2013-10-09 08:16:00
12:36 AM,30.2,28.4,93,28.91,1.0,WSW,13.8,20.7,N/A,,Overcast,240,2013-10-09 08:36:00
12:56 AM,30.2,28.4,93,28.91,1.2,WSW,16.1,21.9,N/A,,Overcast,240,2013-10-09 08:56:00
1:16 AM,30.2,28.4,93,28.92,4.0,WSW,16.1,21.9,N/A,,Overcast,240,2013-10-09 09:16:00
1:36 AM,30.2,28.4,93,28.93,3.0,WSW,15.0,21.9,N/A,,Overcast,240,2013-10-09 09:36:00
1:56 AM,30.2,28.4,93,28.94,1.0,WSW,16.1,21.9,N/A,,Overcast,240,2013-10-09 09:56:00
2:16 AM,30.2,28.4,93,28.95,7.0,SW,10.4,-,N/A,,Overcast,230,2013-10-09 10:16:00
2:36 AM,28.4,26.6,93,28.95,9.0,WSW,11.5,17.3,N/A,,Overcast,240,2013-10-09 10:36:00
2:56 AM,30.2,28.4,93,28.96,10.0,WSW,16.1,23.0,N/A,,Overcast,250,2013-10-09 10:56:00
3:16 AM,30.2,28.4,93,28.97,10.0,WSW,15.0,21.9,N/A,,Overcast,250,2013-10-09 11:16:00
3:36 AM,28.4,28.4,100,28.98,10.0,WSW,15.0,21.9,N/A,,Overcast,250,2013-10-09 11:36:00
3:56 AM,28.4,28.4,100,28.98,10.0,WSW,13.8,23.0,N/A,,Overcast,250,2013-10-09 11:56:00
4:16 AM,28.4,28.4,100,29.00,4.0,WSW,13.8,21.9,N/A,,Overcast,240,2013-10-09 12:16:00
4:36 AM,30.2,28.4,93,29.02,10.0,WSW,16.1,25.3,N/A,,Overcast,250,2013-10-09 12:36:00
4:56 AM,28.4,28.4,100,29.03,10.0,WSW,17.3,23.0,N/A,,Overcast,240,2013-10-09 12:56:00
5:16 AM,28.4,28.4,100,29.06,10.0,WSW,18.4,23.0,N/A,,Overcast,250,2013-10-09 13:16:00
5:36 AM,28.4,28.4,100,29.07,10.0,West,20.7,26.5,N/A,,Overcast,260,2013-10-09 13:36:00
5:56 AM,30.2,26.6,86,29.08,10.0,West,20.7,27.6,N/A,,Mostly Cloudy,260,2013-10-09 13:56:00
6:16 AM,30.2,26.6,86,29.10,10.0,WSW,18.4,25.3,N/A,,Overcast,250,2013-10-09 14:16:00
6:36 AM,30.2,26.6,86,29.11,10.0,West,21.9,27.6,N/A,,Mostly Cloudy,260,2013-10-09 14:36:00
6:56 AM,30.2,26.6,86,29.12,10.0,West,25.3,32.2,N/A,,Scattered Clouds,260,2013-10-09 14:56:00
7:16 AM,30.2,26.6,86,29.14,10.0,West,25.3,32.2,N/A,,Mostly Cloudy,260,2013-10-09 15:16:00
7:36 AM,30.2,24.8,80,29.17,10.0,WSW,18.4,25.3,N/A,,Scattered Clouds,250,2013-10-09 15:36:00
7:56 AM,30.2,24.8,80,29.18,10.0,West,15.0,27.6,N/A,,Partly Cloudy,260,2013-10-09 15:56:00
8:16 AM,30.2,24.8,80,29.19,10.0,West,16.1,21.9,N/A,,Clear,260,2013-10-09 16:16:00
8:36 AM,30.2,24.8,80,29.20,10.0,West,16.1,27.6,N/A,,Clear,260,2013-10-09 16:36:00
8:56 AM,30.2,24.8,80,29.22,10.0,West,17.3,24.2,N/A,,Clear,260,2013-10-09 16:56:00
9:16 AM,28.4,24.8,86,29.24,10.0,WSW,15.0,23.0,N/A,,Partly Cloudy,250,2013-10-09 17:16:00
9:36 AM,28.4,26.6,93,29.26,10.0,WSW,13.8,21.9,N/A,,Partly Cloudy,240,2013-10-09 17:36:00
9:56 AM,28.4,26.6,93,29.28,10.0,SW,16.1,-,N/A,,Clear,230,2013-10-09 17:56:00
10:16 AM,30.2,26.6,86,29.29,10.0,WSW,12.7,18.4,N/A,,Mostly Cloudy,250,2013-10-09 18:16:00
10:36 AM,30.2,24.8,80,29.30,10.0,WSW,16.1,21.9,N/A,,Overcast,250,2013-10-09 18:36:00
10:56 AM,30.2,26.6,86,29.31,10.0,WSW,17.3,24.2,N/A,,Overcast,250,2013-10-09 18:56:00
11:16 AM,30.2,26.6,86,29.33,10.0,West,16.1,26.5,N/A,,Overcast,260,2013-10-09 19:16:00
11:36 AM,32.0,24.8,75,29.34,10.0,West,19.6,25.3,N/A,,Overcast,260,2013-10-09 19:36:00
11:56 AM,32.0,24.8,75,29.35,10.0,WSW,19.6,26.5,N/A,,Overcast,250,2013-10-09 19:56:00
12:16 PM,33.8,24.8,70,29.36,10.0,WSW,19.6,26.5,N/A,,Overcast,250,2013-10-09 20:16:00
12:36 PM,33.8,24.8,70,29.38,10.0,WSW,15.0,25.3,N/A,,Overcast,250,2013-10-09 20:36:00
12:56 PM,33.8,24.8,70,29.38,10.0,WSW,17.3,28.8,N/A,,Mostly Cloudy,250,2013-10-09 20:56:00
1:16 PM,35.6,23.0,60,29.40,10.0,WSW,18.4,28.8,N/A,,Partly Cloudy,240,2013-10-09 21:16:00
1:36 PM,35.6,23.0,60,29.41,10.0,WSW,17.3,32.2,N/A,,Clear,240,2013-10-09 21:36:00
1:56 PM,35.6,21.2,56,29.42,10.0,WSW,21.9,29.9,N/A,,Clear,240,2013-10-09 21:56:00
2:16 PM,35.6,21.2,56,29.43,10.0,WSW,18.4,29.9,N/A,,Clear,250,2013-10-09 22:16:00
2:36 PM,35.6,21.2,56,29.43,10.0,West,20.7,29.9,N/A,,Clear,260,2013-10-09 22:36:00
2:56 PM,35.6,21.2,56,29.45,10.0,WSW,21.9,34.5,N/A,,Clear,250,2013-10-09 22:56:00
3:16 PM,35.6,21.2,56,29.46,10.0,WSW,17.3,28.8,N/A,,Clear,240,2013-10-09 23:16:00
3:36 PM,35.6,21.2,56,29.47,10.0,WSW,18.4,32.2,N/A,,Clear,250,2013-10-09 23:36:00
3:56 PM,35.6,21.2,56,29.48,10.0,WSW,19.6,26.5,N/A,,Clear,250,2013-10-09 23:56:00
4:16 PM,35.6,21.2,56,29.49,10.0,WSW,17.3,24.2,N/A,,Clear,240,2013-10-10 00:16:00
4:36 PM,35.6,21.2,56,29.50,10.0,West,16.1,24.2,N/A,,Clear,260,2013-10-10 00:36:00
4:56 PM,33.8,21.2,60,29.51,10.0,West,18.4,23.0,N/A,,Clear,260,2013-10-10 00:56:00
5:16 PM,35.6,21.2,56,29.52,10.0,WSW,12.7,-,N/A,,Partly Cloudy,250,2013-10-10 01:16:00
5:36 PM,33.8,21.2,60,29.53,10.0,WSW,15.0,-,N/A,,Partly Cloudy,250,2013-10-10 01:36:00
5:56 PM,33.8,21.2,60,29.53,10.0,WSW,16.1,21.9,N/A,,Clear,250,2013-10-10 01:56:00
6:16 PM,32.0,21.2,64,29.54,10.0,WSW,11.5,-,N/A,,Clear,250,2013-10-10 02:16:00
6:36 PM,30.2,23.0,75,29.55,10.0,WSW,9.2,-,N/A,,Clear,250,2013-10-10 02:36:00
6:56 PM,30.2,21.2,69,29.55,10.0,WSW,11.5,-,N/A,,Clear,250,2013-10-10 02:56:00
7:16 PM,28.4,23.0,80,29.56,10.0,West,8.1,-,N/A,,Clear,280,2013-10-10 03:16:00
7:36 PM,28.4,23.0,80,29.56,10.0,West,10.4,-,N/A,,Clear,270,2013-10-10 03:36:00
7:56 PM,28.4,23.0,80,29.56,10.0,West,9.2,-,N/A,,Clear,280,2013-10-10 03:56:00
8:16 PM,28.4,23.0,80,29.57,10.0,West,11.5,-,N/A,,Clear,260,2013-10-10 04:16:00
8:36 PM,28.4,24.8,86,29.59,10.0,West,10.4,-,N/A,,Clear,260,2013-10-10 04:36:00
8:56 PM,28.4,24.8,86,29.59,10.0,West,9.2,-,N/A,,Clear,280,2013-10-10 04:56:00
9:16 PM,26.6,23.0,86,29.59,10.0,West,10.4,-,N/A,,Clear,280,2013-10-10 05:16:00
9:36 PM,26.6,23.0,86,29.60,10.0,WNW,9.2,-,N/A,,Clear,290,2013-10-10 05:36:00
9:56 PM,26.6,24.8,93,29.61,10.0,West,8.1,-,N/A,,Clear,280,2013-10-10 05:56:00
10:16 PM,26.6,24.8,93,29.61,10.0,West,6.9,-,N/A,,Clear,260,2013-10-10 06:16:00
10:36 PM,26.6,23.0,86,29.61,10.0,WSW,8.1,-,N/A,,Clear,240,2013-10-10 06:36:00
10:56 PM,26.6,24.8,93,29.62,10.0,West,5.8,-,N/A,,Scattered Clouds,270,2013-10-10 06:56:00
11:16 PM,26.6,24.8,93,29.63,10.0,West,6.9,-,N/A,,Scattered Clouds,280,2013-10-10 07:16:00
11:36 PM,26.6,23.0,86,29.63,10.0,West,5.8,-,N/A,,Scattered Clouds,270,2013-10-10 07:36:00
11:56 PM,26.6,23.0,86,29.63,10.0,NW,6.9,-,N/A,,Partly Cloudy,320,2013-10-10 07:56:00